Location: Crescent
(42.8242°N, 73.7329°W)
Time: 08:44:59
(UTC+00:00)

Vanguard 1 Rocket - Pass Details

Date: 26 February 2026
Orbit: 653 x 4214 km, 34.3° (Epoch: 12 March)

Event Time Altitude Azimuth Distance (km) Brightness Sun altitude
Rises 00:56:54 0° 267° (W) 6,874 13.1 -25.8°
Reaches altitude 10° 01:07:35 10° 238° (WSW) 6,724 12.3 -27.7°
Maximum altitude 01:12:36 11° 225° (SW) 6,910 12.2 -28.6°
Drops below altitude 10° 01:18:00 10° 212° (SSW) 7,237 12.1 -29.6°
Sets 01:32:08 0° 185° (S) 8,420 12.2 -32.0°
